Year,Month,Day,Hour,Minute,Value (Times are PST for temperature in C)
2016,04,07,00,00,7.30
2016,04,07,00,01,7.30
2016,04,07,00,02,7.20
2016,04,07,00,03,7.20
2016,04,07,00,04,7.20
2016,04,07,00,05,7.20
2016,04,07,00,06,7.20
2016,04,07,00,07,7.20
2016,04,07,00,08,7.20
2016,04,07,00,09,7.20
2016,04,07,00,10,7.10
2016,04,07,00,11,7.10
2016,04,07,00,12,7.10
2016,04,07,00,13,7.10
2016,04,07,00,14,7.10
2016,04,07,00,15,7.10
2016,04,07,00,16,7.10
2016,04,07,00,17,7.10
2016,04,07,00,18,7.10
2016,04,07,00,19,7.10
2016,04,07,00,20,7.10
2016,04,07,00,21,7.00
2016,04,07,00,22,7.00
2016,04,07,00,23,7.00
2016,04,07,00,24,7.00
2016,04,07,00,25,7.00
2016,04,07,00,26,7.00
2016,04,07,00,27,7.00
2016,04,07,00,28,7.00
2016,04,07,00,29,6.90
2016,04,07,00,30,6.90
2016,04,07,00,31,6.90
2016,04,07,00,32,6.90
2016,04,07,00,33,6.90
2016,04,07,00,34,6.90
2016,04,07,00,35,6.80
2016,04,07,00,36,6.80
2016,04,07,00,37,6.80
2016,04,07,00,38,6.80
2016,04,07,00,39,6.80
2016,04,07,00,40,6.80
2016,04,07,00,41,6.80
2016,04,07,00,42,6.80
2016,04,07,00,43,6.80
2016,04,07,00,44,6.80
2016,04,07,00,45,6.80
2016,04,07,00,46,6.80
2016,04,07,00,47,6.80
2016,04,07,00,48,6.80
2016,04,07,00,49,6.80
2016,04,07,00,50,6.80
2016,04,07,00,51,6.70
2016,04,07,00,52,6.80
2016,04,07,00,53,6.70
2016,04,07,00,54,6.70
2016,04,07,00,55,6.70
2016,04,07,00,56,6.70
2016,04,07,00,57,6.70
2016,04,07,00,58,6.70
2016,04,07,00,59,6.80
2016,04,07,01,00,6.80
2016,04,07,01,01,6.80
2016,04,07,01,02,6.80
2016,04,07,01,03,6.70
2016,04,07,01,04,6.70
2016,04,07,01,05,6.70
2016,04,07,01,06,6.80
2016,04,07,01,07,6.80
2016,04,07,01,08,6.80
2016,04,07,01,09,6.80
2016,04,07,01,10,6.80
2016,04,07,01,11,6.70
2016,04,07,01,12,6.70
2016,04,07,01,13,6.70
2016,04,07,01,14,6.70
2016,04,07,01,15,6.70
2016,04,07,01,16,6.70
2016,04,07,01,17,6.70
2016,04,07,01,18,6.70
2016,04,07,01,19,6.70
2016,04,07,01,20,6.70
2016,04,07,01,21,6.70
2016,04,07,01,22,6.70
2016,04,07,01,23,6.70
2016,04,07,01,24,6.70
2016,04,07,01,25,6.70
2016,04,07,01,26,6.70
2016,04,07,01,27,6.70
2016,04,07,01,28,6.70
2016,04,07,01,29,6.80
2016,04,07,01,30,6.70
2016,04,07,01,31,6.70
2016,04,07,01,32,6.70
2016,04,07,01,33,6.70
2016,04,07,01,34,6.70
2016,04,07,01,35,6.60
2016,04,07,01,36,6.60
2016,04,07,01,37,6.60
2016,04,07,01,38,6.60
2016,04,07,01,39,6.60
2016,04,07,01,40,6.60
2016,04,07,01,41,6.60
2016,04,07,01,42,6.60
2016,04,07,01,43,6.60
2016,04,07,01,44,6.50
2016,04,07,01,45,6.50
2016,04,07,01,46,6.50
2016,04,07,01,47,6.40
2016,04,07,01,48,6.40
2016,04,07,01,49,6.40
2016,04,07,01,50,6.40
2016,04,07,01,51,6.30
2016,04,07,01,52,6.30
2016,04,07,01,53,6.30
2016,04,07,01,54,6.30
2016,04,07,01,55,6.30
2016,04,07,01,56,6.30
2016,04,07,01,57,6.40
2016,04,07,01,58,6.50
2016,04,07,01,59,6.50
2016,04,07,02,00,6.50
2016,04,07,02,01,6.50
2016,04,07,02,02,6.50
2016,04,07,02,03,6.50
2016,04,07,02,04,6.50
2016,04,07,02,05,6.50
2016,04,07,02,06,6.50
2016,04,07,02,07,6.50
2016,04,07,02,08,6.40
2016,04,07,02,09,6.40
2016,04,07,02,10,6.40
2016,04,07,02,11,6.40
2016,04,07,02,12,6.40
2016,04,07,02,13,6.40
2016,04,07,02,14,6.40
2016,04,07,02,15,6.40
2016,04,07,02,16,6.40
2016,04,07,02,17,6.30
2016,04,07,02,18,6.30
2016,04,07,02,19,6.30
2016,04,07,02,20,6.30
2016,04,07,02,21,6.20
2016,04,07,02,22,6.30
2016,04,07,02,23,6.30
2016,04,07,02,24,6.30
2016,04,07,02,25,6.30
2016,04,07,02,26,6.30
2016,04,07,02,27,6.30
2016,04,07,02,28,6.30
2016,04,07,02,29,6.40
2016,04,07,02,30,6.40
2016,04,07,02,31,6.50
2016,04,07,02,32,6.50
2016,04,07,02,33,6.50
2016,04,07,02,34,6.50
2016,04,07,02,35,6.50
2016,04,07,02,36,6.60
2016,04,07,02,37,6.70
2016,04,07,02,38,6.70
2016,04,07,02,39,6.80
2016,04,07,02,40,6.80
2016,04,07,02,41,6.80
2016,04,07,02,42,6.80
2016,04,07,02,43,6.80
2016,04,07,02,44,6.90
2016,04,07,02,45,6.90
2016,04,07,02,46,7.00
2016,04,07,02,47,6.90
2016,04,07,02,48,6.80
2016,04,07,02,49,6.80
2016,04,07,02,50,6.70
2016,04,07,02,51,6.70
2016,04,07,02,52,6.70
2016,04,07,02,53,6.70
2016,04,07,02,54,6.70
2016,04,07,02,55,6.70
2016,04,07,02,56,6.70
2016,04,07,02,57,6.60
2016,04,07,02,58,6.70
2016,04,07,02,59,6.70
2016,04,07,03,00,6.70
2016,04,07,03,01,6.70
2016,04,07,03,02,6.80
2016,04,07,03,03,6.80
2016,04,07,03,04,6.70
2016,04,07,03,05,6.70
2016,04,07,03,06,6.60
2016,04,07,03,07,6.60
2016,04,07,03,08,6.60
2016,04,07,03,09,6.60
2016,04,07,03,10,6.70
2016,04,07,03,11,6.60
2016,04,07,03,12,6.60
2016,04,07,03,13,6.50
2016,04,07,03,14,6.50
2016,04,07,03,15,6.40
2016,04,07,03,16,6.40
2016,04,07,03,17,6.40
2016,04,07,03,18,6.40
2016,04,07,03,19,6.40
2016,04,07,03,20,6.30
2016,04,07,03,21,6.30
2016,04,07,03,22,6.30
2016,04,07,03,23,6.30
2016,04,07,03,24,6.20
2016,04,07,03,25,6.10
2016,04,07,03,26,6.10
2016,04,07,03,27,6.10
2016,04,07,03,28,6.10
2016,04,07,03,29,6.10
2016,04,07,03,30,6.00
2016,04,07,03,31,6.00
2016,04,07,03,32,6.00
2016,04,07,03,33,5.90
2016,04,07,03,34,5.90
2016,04,07,03,35,5.90
2016,04,07,03,36,6.00
2016,04,07,03,37,6.00
2016,04,07,03,38,6.00
2016,04,07,03,39,6.00
2016,04,07,03,40,6.00
2016,04,07,03,41,6.00
2016,04,07,03,42,6.00
2016,04,07,03,43,6.10
2016,04,07,03,44,6.20
2016,04,07,03,45,6.20
2016,04,07,03,46,6.30
2016,04,07,03,47,6.20
2016,04,07,03,48,6.20
2016,04,07,03,49,6.20
2016,04,07,03,50,6.20
2016,04,07,03,51,6.20
2016,04,07,03,52,6.20
2016,04,07,03,53,6.20
2016,04,07,03,54,6.20
2016,04,07,03,55,6.20
2016,04,07,03,56,6.20
2016,04,07,03,57,6.20
2016,04,07,03,58,6.20
2016,04,07,03,59,6.20
2016,04,07,04,00,6.20
2016,04,07,04,01,6.20
2016,04,07,04,02,6.20
2016,04,07,04,03,6.20
2016,04,07,04,04,6.10
2016,04,07,04,05,6.20
2016,04,07,04,06,6.20
2016,04,07,04,07,6.20
2016,04,07,04,08,6.20
2016,04,07,04,09,6.20
2016,04,07,04,10,6.20
2016,04,07,04,11,6.20
2016,04,07,04,12,6.20
2016,04,07,04,13,6.20
2016,04,07,04,14,6.20
2016,04,07,04,15,6.20
2016,04,07,04,16,6.20
2016,04,07,04,17,6.20
2016,04,07,04,18,6.30
2016,04,07,04,19,6.30
2016,04,07,04,20,6.30
2016,04,07,04,21,6.30
2016,04,07,04,22,6.30
2016,04,07,04,23,6.30
2016,04,07,04,24,6.30
2016,04,07,04,25,6.30
2016,04,07,04,26,6.30
2016,04,07,04,27,6.30
2016,04,07,04,28,6.30
2016,04,07,04,29,6.40
2016,04,07,04,30,6.40
2016,04,07,04,31,6.40
2016,04,07,04,32,6.50
2016,04,07,04,33,6.50
2016,04,07,04,34,6.50
2016,04,07,04,35,6.50
2016,04,07,04,36,6.50
2016,04,07,04,37,6.50
2016,04,07,04,38,6.50
2016,04,07,04,39,6.50
2016,04,07,04,40,6.60
2016,04,07,04,41,6.60
2016,04,07,04,42,6.60
2016,04,07,04,43,6.60
2016,04,07,04,44,6.60
2016,04,07,04,45,6.60
2016,04,07,04,46,6.70
2016,04,07,04,47,6.70
2016,04,07,04,48,6.70
2016,04,07,04,49,6.70
2016,04,07,04,50,6.80
2016,04,07,04,51,6.80
2016,04,07,04,52,6.90
2016,04,07,04,53,7.00
2016,04,07,04,54,7.00
2016,04,07,04,55,7.10
2016,04,07,04,56,7.10
2016,04,07,04,57,7.10
2016,04,07,04,58,7.10
2016,04,07,04,59,7.00
2016,04,07,05,00,7.00
2016,04,07,05,01,7.00
2016,04,07,05,02,6.90
2016,04,07,05,03,6.90
2016,04,07,05,04,6.90
2016,04,07,05,05,6.90
2016,04,07,05,06,6.90
2016,04,07,05,07,6.90
2016,04,07,05,08,6.90
2016,04,07,05,09,6.90
2016,04,07,05,10,6.80
2016,04,07,05,11,6.80
2016,04,07,05,12,6.80
2016,04,07,05,13,6.80
2016,04,07,05,14,6.80
2016,04,07,05,15,6.80
2016,04,07,05,16,6.90
2016,04,07,05,17,6.90
2016,04,07,05,18,6.90
2016,04,07,05,19,6.90
2016,04,07,05,20,6.90
2016,04,07,05,21,6.90
2016,04,07,05,22,6.90
2016,04,07,05,23,6.90
2016,04,07,05,24,6.90
2016,04,07,05,25,6.90
2016,04,07,05,26,7.00
2016,04,07,05,27,7.00
2016,04,07,05,28,7.00
2016,04,07,05,29,7.00
2016,04,07,05,30,7.10
2016,04,07,05,31,7.10
2016,04,07,05,32,7.10
2016,04,07,05,33,7.10
2016,04,07,05,34,7.10
2016,04,07,05,35,7.10
2016,04,07,05,36,7.10
2016,04,07,05,37,7.10
2016,04,07,05,38,7.10
2016,04,07,05,39,7.10
2016,04,07,05,40,7.10
2016,04,07,05,41,7.20
2016,04,07,05,42,7.20
2016,04,07,05,43,7.20
2016,04,07,05,44,7.20
2016,04,07,05,45,7.30
2016,04,07,05,46,7.30
2016,04,07,05,47,7.30
2016,04,07,05,48,7.30
2016,04,07,05,49,7.30
2016,04,07,05,50,7.30
2016,04,07,05,51,7.40
2016,04,07,05,52,7.40
2016,04,07,05,53,7.40
2016,04,07,05,54,7.40
2016,04,07,05,55,7.40
2016,04,07,05,56,7.40
2016,04,07,05,57,7.40
2016,04,07,05,58,7.40
2016,04,07,05,59,7.30
2016,04,07,06,00,7.30
2016,04,07,06,01,7.30
2016,04,07,06,02,7.30
2016,04,07,06,03,7.40
2016,04,07,06,04,7.40
2016,04,07,06,05,7.40
2016,04,07,06,06,7.40
2016,04,07,06,07,7.40
2016,04,07,06,08,7.50
2016,04,07,06,09,7.50
2016,04,07,06,10,7.60
2016,04,07,06,11,7.60
2016,04,07,06,12,7.70
2016,04,07,06,13,7.70
2016,04,07,06,14,7.70
2016,04,07,06,15,7.70
2016,04,07,06,16,7.60
2016,04,07,06,17,7.60
2016,04,07,06,18,7.60
2016,04,07,06,19,7.60
2016,04,07,06,20,7.60
2016,04,07,06,21,7.60
2016,04,07,06,22,7.60
2016,04,07,06,23,7.60
2016,04,07,06,24,7.60
2016,04,07,06,25,7.60
2016,04,07,06,26,7.60
2016,04,07,06,27,7.60
2016,04,07,06,28,7.60
2016,04,07,06,29,7.70
2016,04,07,06,30,7.70
2016,04,07,06,31,7.70
2016,04,07,06,32,7.70
2016,04,07,06,33,7.70
2016,04,07,06,34,7.70
2016,04,07,06,35,7.70
2016,04,07,06,36,7.70
2016,04,07,06,37,7.70
2016,04,07,06,38,7.70
2016,04,07,06,39,7.70
2016,04,07,06,40,7.70
2016,04,07,06,41,7.80
2016,04,07,06,42,7.80
2016,04,07,06,43,7.80
2016,04,07,06,44,7.80
2016,04,07,06,45,7.80
2016,04,07,06,46,7.80
2016,04,07,06,47,7.80
2016,04,07,06,48,7.80
2016,04,07,06,49,7.80
2016,04,07,06,50,7.80
2016,04,07,06,51,7.80
2016,04,07,06,52,7.70
2016,04,07,06,53,7.70
2016,04,07,06,54,7.70
2016,04,07,06,55,7.70
2016,04,07,06,56,7.70
2016,04,07,06,57,7.70
2016,04,07,06,58,7.70
2016,04,07,06,59,7.80
2016,04,07,07,00,7.80
2016,04,07,07,01,7.80
2016,04,07,07,02,7.80
2016,04,07,07,03,7.80
2016,04,07,07,04,7.80
2016,04,07,07,05,7.80
2016,04,07,07,06,7.80
2016,04,07,07,07,7.80
2016,04,07,07,08,7.90
2016,04,07,07,09,7.90
2016,04,07,07,10,7.90
2016,04,07,07,11,7.90
2016,04,07,07,12,8.00
2016,04,07,07,13,8.00
2016,04,07,07,14,8.00
2016,04,07,07,15,8.00
2016,04,07,07,16,8.00
2016,04,07,07,17,8.10
2016,04,07,07,18,8.10
2016,04,07,07,19,8.10
2016,04,07,07,20,8.10
2016,04,07,07,21,8.20
2016,04,07,07,22,8.20
2016,04,07,07,23,8.20
2016,04,07,07,24,8.30
2016,04,07,07,25,8.30
2016,04,07,07,26,8.30
2016,04,07,07,27,8.30
2016,04,07,07,28,8.30
2016,04,07,07,29,8.30
2016,04,07,07,30,8.30
2016,04,07,07,31,8.30
2016,04,07,07,32,8.30
2016,04,07,07,33,8.30
2016,04,07,07,34,8.40
2016,04,07,07,35,8.40
2016,04,07,07,36,8.40
2016,04,07,07,37,8.40
2016,04,07,07,38,8.40
2016,04,07,07,39,8.40
2016,04,07,07,40,8.50
2016,04,07,07,41,8.40
2016,04,07,07,42,8.50
2016,04,07,07,43,8.50
2016,04,07,07,44,8.50
2016,04,07,07,45,8.50
2016,04,07,07,46,8.60
2016,04,07,07,47,8.60
2016,04,07,07,48,8.60
2016,04,07,07,49,8.60
2016,04,07,07,50,8.60
2016,04,07,07,51,8.60
2016,04,07,07,52,8.60
2016,04,07,07,53,8.60
2016,04,07,07,54,8.60
2016,04,07,07,55,8.60
2016,04,07,07,56,8.60
2016,04,07,07,57,8.70
2016,04,07,07,58,8.70
2016,04,07,07,59,8.70
2016,04,07,08,00,8.70
2016,04,07,08,01,8.70
2016,04,07,08,02,8.70
2016,04,07,08,03,8.70
2016,04,07,08,04,8.70
2016,04,07,08,05,8.70
2016,04,07,08,06,8.70
2016,04,07,08,07,8.70
2016,04,07,08,08,8.80
2016,04,07,08,09,8.80
2016,04,07,08,10,8.80
2016,04,07,08,11,8.80
2016,04,07,08,12,8.80
2016,04,07,08,13,8.80
2016,04,07,08,14,8.80
2016,04,07,08,15,8.80
2016,04,07,08,16,8.80
2016,04,07,08,17,8.90
2016,04,07,08,18,8.90
2016,04,07,08,19,8.90
2016,04,07,08,20,8.90
2016,04,07,08,21,8.90
2016,04,07,08,22,9.00
2016,04,07,08,23,9.00
2016,04,07,08,24,9.00
2016,04,07,08,25,9.10
2016,04,07,08,26,9.10
2016,04,07,08,27,9.10
2016,04,07,08,28,9.20
2016,04,07,08,29,9.20
2016,04,07,08,30,9.20
2016,04,07,08,31,9.20
2016,04,07,08,32,9.20
2016,04,07,08,33,9.20
2016,04,07,08,34,9.30
2016,04,07,08,35,9.30
2016,04,07,08,36,9.30
2016,04,07,08,37,9.30
2016,04,07,08,38,9.40
2016,04,07,08,39,9.30
2016,04,07,08,40,9.30
2016,04,07,08,41,9.20
2016,04,07,08,42,9.20
2016,04,07,08,43,9.20
2016,04,07,08,44,9.20
2016,04,07,08,45,9.20
2016,04,07,08,46,9.10
2016,04,07,08,47,9.10
2016,04,07,08,48,9.00
2016,04,07,08,49,9.00
2016,04,07,08,50,9.10
2016,04,07,08,51,9.10
2016,04,07,08,52,9.10
2016,04,07,08,53,9.10
2016,04,07,08,54,9.10
2016,04,07,08,55,9.10
2016,04,07,08,56,9.10
2016,04,07,08,57,9.10
2016,04,07,08,58,9.20
2016,04,07,08,59,9.20
2016,04,07,09,00,9.20
2016,04,07,09,01,9.30
2016,04,07,09,02,9.30
2016,04,07,09,03,9.30
2016,04,07,09,04,9.30
2016,04,07,09,05,9.30
2016,04,07,09,06,9.40
2016,04,07,09,07,9.40
2016,04,07,09,08,9.40
2016,04,07,09,09,9.40
2016,04,07,09,10,9.40
2016,04,07,09,11,9.40
2016,04,07,09,12,9.50
2016,04,07,09,13,9.50
2016,04,07,09,14,9.40
2016,04,07,09,15,9.30
2016,04,07,09,16,9.30
2016,04,07,09,17,9.20
2016,04,07,09,18,9.20
2016,04,07,09,19,9.20
2016,04,07,09,20,9.30
2016,04,07,09,21,9.30
2016,04,07,09,22,9.30
2016,04,07,09,23,9.30
2016,04,07,09,24,9.40
2016,04,07,09,25,9.40
2016,04,07,09,26,9.50
2016,04,07,09,27,9.60
2016,04,07,09,28,9.60
2016,04,07,09,29,9.60
2016,04,07,09,30,9.70
2016,04,07,09,31,9.80
2016,04,07,09,32,9.80
2016,04,07,09,33,9.90
2016,04,07,09,34,9.80
2016,04,07,09,35,9.80
2016,04,07,09,36,9.80
2016,04,07,09,37,9.70
2016,04,07,09,38,9.70
2016,04,07,09,39,9.70
2016,04,07,09,40,9.70
2016,04,07,09,41,9.70
2016,04,07,09,42,9.60
2016,04,07,09,43,9.50
2016,04,07,09,44,9.50
2016,04,07,09,45,9.40
2016,04,07,09,46,9.30
2016,04,07,09,47,9.30
2016,04,07,09,48,9.30
2016,04,07,09,49,9.40
2016,04,07,09,50,9.40
2016,04,07,09,51,9.40
2016,04,07,09,52,9.50
2016,04,07,09,53,9.60
2016,04,07,09,54,9.60
2016,04,07,09,55,9.60
2016,04,07,09,56,9.70
2016,04,07,09,57,9.80
2016,04,07,09,58,9.80
2016,04,07,09,59,9.90
2016,04,07,10,00,9.90
2016,04,07,10,01,10.00
2016,04,07,10,02,10.10
2016,04,07,10,03,10.20
2016,04,07,10,04,10.30
2016,04,07,10,05,10.30
2016,04,07,10,06,10.40
2016,04,07,10,07,10.40
2016,04,07,10,08,10.50
2016,04,07,10,09,10.60
2016,04,07,10,10,10.60
2016,04,07,10,11,10.60
2016,04,07,10,12,10.60
2016,04,07,10,13,10.60
2016,04,07,10,14,10.70
2016,04,07,10,15,10.60
2016,04,07,10,16,10.60
2016,04,07,10,17,10.50
2016,04,07,10,18,10.50
2016,04,07,10,19,10.50
2016,04,07,10,20,10.50
2016,04,07,10,21,10.50
2016,04,07,10,22,10.40
2016,04,07,10,23,10.40
2016,04,07,10,24,10.40
2016,04,07,10,25,10.50
2016,04,07,10,26,10.60
2016,04,07,10,27,10.70
2016,04,07,10,28,10.70
2016,04,07,10,29,10.80
2016,04,07,10,30,10.90
2016,04,07,10,31,11.00
2016,04,07,10,32,11.00
2016,04,07,10,33,11.10
2016,04,07,10,34,11.10
2016,04,07,10,35,11.20
2016,04,07,10,36,11.20
2016,04,07,10,37,11.20
2016,04,07,10,38,11.30
2016,04,07,10,39,11.20
2016,04,07,10,40,11.20
2016,04,07,10,41,11.10
2016,04,07,10,42,11.10
2016,04,07,10,43,11.10
2016,04,07,10,44,11.00
2016,04,07,10,45,11.00
2016,04,07,10,46,11.00
2016,04,07,10,47,11.00
2016,04,07,10,48,11.00
2016,04,07,10,49,11.00
2016,04,07,10,50,10.90
2016,04,07,10,51,10.80
2016,04,07,10,52,10.60
2016,04,07,10,53,10.50
2016,04,07,10,54,10.40
2016,04,07,10,55,10.30
2016,04,07,10,56,10.30
2016,04,07,10,57,10.20
2016,04,07,10,58,10.10
2016,04,07,10,59,10.10
2016,04,07,11,00,10.00
2016,04,07,11,01,10.00
2016,04,07,11,02,9.90
2016,04,07,11,03,9.80
2016,04,07,11,04,9.80
2016,04,07,11,05,9.80
2016,04,07,11,06,9.80
2016,04,07,11,07,9.70
2016,04,07,11,08,9.70
2016,04,07,11,09,9.70
2016,04,07,11,10,9.70
2016,04,07,11,11,9.80
2016,04,07,11,12,9.90
2016,04,07,11,13,9.90
2016,04,07,11,14,9.80
2016,04,07,11,15,9.90
2016,04,07,11,16,9.90
2016,04,07,11,17,9.90
2016,04,07,11,18,9.80
2016,04,07,11,19,9.80
2016,04,07,11,20,9.80
2016,04,07,11,21,9.70
2016,04,07,11,22,9.70
2016,04,07,11,23,9.70
2016,04,07,11,24,9.70
2016,04,07,11,25,9.70
2016,04,07,11,26,9.70
2016,04,07,11,27,9.70
2016,04,07,11,28,9.70
2016,04,07,11,29,9.80
2016,04,07,11,30,9.90
2016,04,07,11,31,9.90
2016,04,07,11,32,9.90
2016,04,07,11,33,9.90
2016,04,07,11,34,9.80
2016,04,07,11,35,9.80
2016,04,07,11,36,9.80
2016,04,07,11,37,9.80
2016,04,07,11,38,9.80
2016,04,07,11,39,9.70
2016,04,07,11,40,9.80
2016,04,07,11,41,9.80
2016,04,07,11,42,9.90
2016,04,07,11,43,10.00
2016,04,07,11,44,10.10
2016,04,07,11,45,10.10
2016,04,07,11,46,10.20
2016,04,07,11,47,10.20
2016,04,07,11,48,10.30
2016,04,07,11,49,10.40
2016,04,07,11,50,10.50
2016,04,07,11,51,10.50
2016,04,07,11,52,10.40
2016,04,07,11,53,10.40
2016,04,07,11,54,10.50
2016,04,07,11,55,10.50
2016,04,07,11,56,10.60
2016,04,07,11,57,10.50
2016,04,07,11,58,10.40
2016,04,07,11,59,10.40
2016,04,07,12,00,10.30
2016,04,07,12,01,10.30
2016,04,07,12,02,10.30
2016,04,07,12,03,10.30
2016,04,07,12,04,10.20
2016,04,07,12,05,10.20
2016,04,07,12,06,10.10
2016,04,07,12,07,10.10
2016,04,07,12,08,10.10
2016,04,07,12,09,10.10
2016,04,07,12,10,10.10
2016,04,07,12,11,10.10
2016,04,07,12,12,10.20
2016,04,07,12,13,10.20
2016,04,07,12,14,10.30
2016,04,07,12,15,10.30
2016,04,07,12,16,10.40
2016,04,07,12,17,10.50
2016,04,07,12,18,10.50
2016,04,07,12,19,10.50
2016,04,07,12,20,10.50
2016,04,07,12,21,10.40
2016,04,07,12,22,10.40
2016,04,07,12,23,10.30
2016,04,07,12,24,10.30
2016,04,07,12,25,10.30
2016,04,07,12,26,10.20
2016,04,07,12,27,10.20
2016,04,07,12,28,10.10
2016,04,07,12,29,10.10
2016,04,07,12,30,10.20
2016,04,07,12,31,10.30
2016,04,07,12,32,10.30
2016,04,07,12,33,10.40
2016,04,07,12,34,10.40
2016,04,07,12,35,10.50
2016,04,07,12,36,10.50
2016,04,07,12,37,10.50
2016,04,07,12,38,10.50
2016,04,07,12,39,10.50
2016,04,07,12,40,10.60
2016,04,07,12,41,10.60
2016,04,07,12,42,10.60
2016,04,07,12,43,10.60
2016,04,07,12,44,10.70
2016,04,07,12,45,10.70
2016,04,07,12,46,10.70
2016,04,07,12,47,10.80
2016,04,07,12,48,10.80
2016,04,07,12,49,10.90
2016,04,07,12,50,10.90
2016,04,07,12,51,11.00
2016,04,07,12,52,11.00
2016,04,07,12,53,11.20
2016,04,07,12,54,11.30
2016,04,07,12,55,11.50
2016,04,07,12,56,11.60
2016,04,07,12,57,11.60
2016,04,07,12,58,11.70
2016,04,07,12,59,11.70
2016,04,07,13,00,11.80
2016,04,07,13,01,11.80
2016,04,07,13,02,11.90
2016,04,07,13,03,11.90
2016,04,07,13,04,11.90
2016,04,07,13,05,12.00
2016,04,07,13,06,12.00
2016,04,07,13,07,12.10
2016,04,07,13,08,12.20
2016,04,07,13,09,12.20
2016,04,07,13,10,12.20
2016,04,07,13,11,12.20
2016,04,07,13,12,12.10
2016,04,07,13,13,12.00
2016,04,07,13,14,11.90
2016,04,07,13,15,11.90
2016,04,07,13,16,11.80
2016,04,07,13,17,11.80
2016,04,07,13,18,11.90
2016,04,07,13,19,11.80
2016,04,07,13,20,11.90
2016,04,07,13,21,11.90
2016,04,07,13,22,11.90
2016,04,07,13,23,12.00
2016,04,07,13,24,12.10
2016,04,07,13,25,12.20
2016,04,07,13,26,12.20
2016,04,07,13,27,12.20
2016,04,07,13,28,12.30
2016,04,07,13,29,12.30
2016,04,07,13,30,12.40
2016,04,07,13,31,12.40
2016,04,07,13,32,12.50
2016,04,07,13,33,12.50
2016,04,07,13,34,12.50
2016,04,07,13,35,12.60
2016,04,07,13,36,12.60
2016,04,07,13,37,12.70
2016,04,07,13,38,12.70
2016,04,07,13,39,12.70
2016,04,07,13,40,12.80
2016,04,07,13,41,12.80
2016,04,07,13,42,12.80
2016,04,07,13,43,12.90
2016,04,07,13,44,12.90
2016,04,07,13,45,13.00
2016,04,07,13,46,13.00
2016,04,07,13,47,13.10
2016,04,07,13,48,13.10
2016,04,07,13,49,13.20
2016,04,07,13,50,13.20
2016,04,07,13,51,13.30
2016,04,07,13,52,13.20
2016,04,07,13,53,13.30
2016,04,07,13,54,13.30
2016,04,07,13,55,13.30
2016,04,07,13,56,13.20
2016,04,07,13,57,13.20
2016,04,07,13,58,13.20
2016,04,07,13,59,13.20
2016,04,07,14,00,13.20
2016,04,07,14,01,13.20
2016,04,07,14,02,13.20
2016,04,07,14,03,13.30
2016,04,07,14,04,13.20
2016,04,07,14,05,13.20
2016,04,07,14,06,13.20
2016,04,07,14,07,13.20
2016,04,07,14,08,13.20
2016,04,07,14,09,13.30
2016,04,07,14,10,13.40
2016,04,07,14,11,13.40
2016,04,07,14,12,13.40
2016,04,07,14,13,13.40
2016,04,07,14,14,13.40
2016,04,07,14,15,13.40
2016,04,07,14,16,13.50
2016,04,07,14,17,13.50
2016,04,07,14,18,13.50
2016,04,07,14,19,13.50
2016,04,07,14,20,13.60
2016,04,07,14,21,13.70
2016,04,07,14,22,13.80
2016,04,07,14,23,13.80
2016,04,07,14,24,13.90
2016,04,07,14,25,14.00
2016,04,07,14,26,14.10
2016,04,07,14,27,14.00
2016,04,07,14,28,14.00
2016,04,07,14,29,14.00
2016,04,07,14,30,14.00
2016,04,07,14,31,14.00
2016,04,07,14,32,14.00
2016,04,07,14,33,14.10
2016,04,07,14,34,14.20
2016,04,07,14,35,14.20
2016,04,07,14,36,14.20
2016,04,07,14,37,14.20
2016,04,07,14,38,14.20
2016,04,07,14,39,14.10
2016,04,07,14,40,14.10
2016,04,07,14,41,14.00
2016,04,07,14,42,14.00
2016,04,07,14,43,13.90
2016,04,07,14,44,13.90
2016,04,07,14,45,14.00
2016,04,07,14,46,14.00
2016,04,07,14,47,14.00
2016,04,07,14,48,14.00
2016,04,07,14,49,14.00
2016,04,07,14,50,14.00
2016,04,07,14,51,14.00
2016,04,07,14,52,13.90
2016,04,07,14,53,13.80
2016,04,07,14,54,13.80
2016,04,07,14,55,13.80
2016,04,07,14,56,13.80
2016,04,07,14,57,13.80
2016,04,07,14,58,13.80
2016,04,07,14,59,13.80
2016,04,07,15,00,13.80
2016,04,07,15,01,13.80
2016,04,07,15,02,13.80
2016,04,07,15,03,13.80
2016,04,07,15,04,13.80
2016,04,07,15,05,13.90
2016,04,07,15,06,13.90
2016,04,07,15,07,13.90
2016,04,07,15,08,13.90
2016,04,07,15,09,13.90
2016,04,07,15,10,14.00
2016,04,07,15,11,14.00
2016,04,07,15,12,14.00
2016,04,07,15,13,14.00
2016,04,07,15,14,14.00
2016,04,07,15,15,14.00
2016,04,07,15,16,13.90
2016,04,07,15,17,13.90
2016,04,07,15,18,13.90
2016,04,07,15,19,13.90
2016,04,07,15,20,13.90
2016,04,07,15,21,13.80
2016,04,07,15,22,13.80
2016,04,07,15,23,13.80
2016,04,07,15,24,13.80
2016,04,07,15,25,13.90
2016,04,07,15,26,13.90
2016,04,07,15,27,13.90
2016,04,07,15,28,13.90
2016,04,07,15,29,13.90
2016,04,07,15,30,13.90
2016,04,07,15,31,14.00
2016,04,07,15,32,14.00
2016,04,07,15,33,14.10
2016,04,07,15,34,14.20
2016,04,07,15,35,14.20
2016,04,07,15,36,14.30
2016,04,07,15,37,14.30
2016,04,07,15,38,14.30
2016,04,07,15,39,14.30
2016,04,07,15,40,14.30
2016,04,07,15,41,14.40
2016,04,07,15,42,14.30
2016,04,07,15,43,14.30
2016,04,07,15,44,14.30
2016,04,07,15,45,14.20
2016,04,07,15,46,14.10
2016,04,07,15,47,14.10
2016,04,07,15,48,14.10
2016,04,07,15,49,14.10
2016,04,07,15,50,14.10
2016,04,07,15,51,14.10
2016,04,07,15,52,14.10
2016,04,07,15,53,14.10
2016,04,07,15,54,14.10
2016,04,07,15,55,14.10
2016,04,07,15,56,14.10
2016,04,07,15,57,14.20
2016,04,07,15,58,14.20
2016,04,07,15,59,14.30
2016,04,07,16,00,14.30
2016,04,07,16,01,14.30
2016,04,07,16,02,14.30
2016,04,07,16,03,14.30
2016,04,07,16,04,14.30
2016,04,07,16,05,14.40
2016,04,07,16,06,14.40
2016,04,07,16,07,14.50
2016,04,07,16,08,14.60
2016,04,07,16,09,14.60
2016,04,07,16,10,14.70
2016,04,07,16,11,14.70
2016,04,07,16,12,14.60
2016,04,07,16,13,14.60
2016,04,07,16,14,14.60
2016,04,07,16,15,14.60
2016,04,07,16,16,14.60
2016,04,07,16,17,14.50
2016,04,07,16,18,14.50
2016,04,07,16,19,14.50
2016,04,07,16,20,14.40
2016,04,07,16,21,14.30
2016,04,07,16,22,14.30
2016,04,07,16,23,14.30
2016,04,07,16,24,14.30
2016,04,07,16,25,14.30
2016,04,07,16,26,14.30
2016,04,07,16,27,14.20
2016,04,07,16,28,14.20
2016,04,07,16,29,14.20
2016,04,07,16,30,14.20
2016,04,07,16,31,14.20
2016,04,07,16,32,14.20
2016,04,07,16,33,14.20
2016,04,07,16,34,14.20
2016,04,07,16,35,14.10
2016,04,07,16,36,14.10
2016,04,07,16,37,14.10
2016,04,07,16,38,14.10
2016,04,07,16,39,14.10
2016,04,07,16,40,14.10
2016,04,07,16,41,14.10
2016,04,07,16,42,14.20
2016,04,07,16,43,14.20
2016,04,07,16,44,14.20
2016,04,07,16,45,14.30
2016,04,07,16,46,14.30
2016,04,07,16,47,14.30
2016,04,07,16,48,14.30
2016,04,07,16,49,14.30
2016,04,07,16,50,14.30
2016,04,07,16,51,14.30
2016,04,07,16,52,14.40
2016,04,07,16,53,14.40
2016,04,07,16,54,14.40
2016,04,07,16,55,14.50
2016,04,07,16,56,14.50
2016,04,07,16,57,14.50
2016,04,07,16,58,14.50
2016,04,07,16,59,14.50
2016,04,07,17,00,14.50
2016,04,07,17,01,14.60
2016,04,07,17,02,14.60
2016,04,07,17,03,14.60
2016,04,07,17,04,14.60
2016,04,07,17,05,14.60
2016,04,07,17,06,14.60
2016,04,07,17,07,14.70
2016,04,07,17,08,14.70
2016,04,07,17,09,14.70
2016,04,07,17,10,14.80
2016,04,07,17,11,14.80
2016,04,07,17,12,14.80
2016,04,07,17,13,14.80
2016,04,07,17,14,14.80
2016,04,07,17,15,14.90
2016,04,07,17,16,15.00
2016,04,07,17,17,15.00
2016,04,07,17,18,15.10
2016,04,07,17,19,15.10
2016,04,07,17,20,15.10
2016,04,07,17,21,15.20
2016,04,07,17,22,15.20
2016,04,07,17,23,15.30
2016,04,07,17,24,15.30
2016,04,07,17,25,15.30
2016,04,07,17,26,15.30
2016,04,07,17,27,15.30
2016,04,07,17,28,15.30
2016,04,07,17,29,15.30
2016,04,07,17,30,15.30
2016,04,07,17,31,15.30
2016,04,07,17,32,15.30
2016,04,07,17,33,15.30
2016,04,07,17,34,15.30
2016,04,07,17,35,15.20
2016,04,07,17,36,15.20
2016,04,07,17,37,15.10
2016,04,07,17,38,15.10
2016,04,07,17,39,15.00
2016,04,07,17,40,15.00
2016,04,07,17,41,14.90
2016,04,07,17,42,14.80
2016,04,07,17,43,14.80
2016,04,07,17,44,14.70
2016,04,07,17,45,14.70
2016,04,07,17,46,14.70
2016,04,07,17,47,14.70